Location: Halfweg
(53.1000°N, 6.6000°E)
Time: 12:02:49
(UTC+00:00)

Cosmos 1975 - Pass Details

Date: 15 May 2026
Orbit: 471 x 485 km, 82.5° (Epoch: 5 June)

Event Time Altitude Azimuth Distance (km) Brightness Sun altitude
Rises 21:52:04 0° 355° (N) 2,575 7.7 -14.8°
Reaches altitude 10° 21:54:20 10° 6° (N) 1,689 6.3 -15.0°
Maximum altitude 21:57:42 32° 71° (ENE) 855 3.7 -15.1°
Enters shadow 21:59:16 23° 116° (ESE) 1,091 3.9 -15.2°
